Location: Dehesa de la Cepeda
(40.6574°N, 4.3013°W)
Time: 09:39:55
(UTC+00:00)

Meteor 2-2 Rocket - Pass Details

Date: 05 July 2020
Orbit: 852 x 929 km, 81.3° (Epoch: 07 August)

Event Time Altitude Azimuth Distance (km) Brightness Sun altitude
Rises 22:26:00 0° 352° (N) 3,512 8.7 -21.2°
Reaches altitude 10° 22:28:30 10° 354° (N) 2,556 7.7 -21.4°
Maximum altitude 22:34:19 76° 80° (E) 904 4.2 -21.9°
Enters shadow 22:35:59 47° 153° (SSE) 1,136 4.4 -22.0°
